TimeCDT,TemperatureF,Dew PointF,Humidity,Sea Level PressureIn,VisibilityMPH,Wind Direction,Wind SpeedMPH,Gust SpeedMPH,PrecipitationIn,Events,Conditions,WindDirDegrees,DateUTC
12:15 AM,64.2,55.2,73,30.11,10.0,East,3.5,-,N/A,,Clear,90,2013-08-16 05:15:00
12:55 AM,63.3,54.9,74,30.12,10.0,ESE,3.5,-,N/A,,Overcast,110,2013-08-16 05:55:00
1:15 AM,63.7,55.0,73,30.11,10.0,East,4.6,-,N/A,,Overcast,90,2013-08-16 06:15:00
1:35 AM,63.5,54.7,73,30.12,10.0,ESE,4.6,-,N/A,,Overcast,110,2013-08-16 06:35:00
1:55 AM,63.7,54.5,72,30.12,10.0,East,4.6,-,N/A,,Overcast,90,2013-08-16 06:55:00
2:15 AM,63.5,54.1,72,30.11,10.0,ENE,3.5,-,N/A,,Overcast,70,2013-08-16 07:15:00
2:35 AM,63.0,54.0,72,30.11,10.0,ENE,4.6,-,N/A,,Mostly Cloudy,70,2013-08-16 07:35:00
2:55 AM,62.2,54.5,76,30.10,10.0,NE,3.5,-,N/A,,Scattered Clouds,50,2013-08-16 07:55:00
3:15 AM,61.5,54.7,78,30.11,10.0,ENE,3.5,-,N/A,,Mostly Cloudy,60,2013-08-16 08:15:00
3:35 AM,61.3,55.0,80,30.11,10.0,ENE,3.5,-,N/A,,Overcast,60,2013-08-16 08:35:00
3:55 AM,61.0,55.8,83,30.11,10.0,Calm,Calm,-,N/A,,Mostly Cloudy,0,2013-08-16 08:55:00
4:15 AM,59.7,57.2,91,30.11,10.0,Calm,Calm,-,N/A,,Mostly Cloudy,0,2013-08-16 09:15:00
4:35 AM,59.2,57.6,94,30.12,10.0,Calm,Calm,-,N/A,,Overcast,0,2013-08-16 09:35:00
4:55 AM,60.1,57.7,92,30.12,10.0,Calm,Calm,-,N/A,,Overcast,0,2013-08-16 09:55:00
5:15 AM,60.3,58.1,93,30.12,10.0,Calm,Calm,-,N/A,,Overcast,0,2013-08-16 10:15:00
5:35 AM,60.6,57.9,91,30.12,10.0,Calm,Calm,-,N/A,,Overcast,0,2013-08-16 10:35:00
5:55 AM,60.3,57.6,91,30.13,10.0,Calm,Calm,-,N/A,,Overcast,0,2013-08-16 10:55:00
6:15 AM,59.7,57.4,92,30.13,10.0,Calm,Calm,-,N/A,,Overcast,0,2013-08-16 11:15:00
6:35 AM,58.8,57.2,94,30.13,10.0,Calm,Calm,-,N/A,,Scattered Clouds,0,2013-08-16 11:35:00
6:55 AM,58.6,57.0,94,30.14,10.0,Calm,Calm,-,N/A,,Clear,0,2013-08-16 11:55:00
7:15 AM,58.5,57.2,96,30.14,10.0,Calm,Calm,-,N/A,,Clear,0,2013-08-16 12:15:00
7:35 AM,59.5,57.7,94,30.14,10.0,NE,3.5,-,N/A,,Clear,50,2013-08-16 12:35:00
7:55 AM,60.6,57.9,91,30.14,10.0,NE,4.6,-,N/A,,Clear,50,2013-08-16 12:55:00
8:15 AM,61.9,58.1,87,30.15,10.0,NE,5.8,-,N/A,,Clear,50,2013-08-16 13:15:00
8:35 AM,63.0,58.3,85,30.15,10.0,NE,5.8,-,N/A,,Clear,40,2013-08-16 13:35:00
8:55 AM,64.4,57.2,77,30.16,10.0,ENE,3.5,-,N/A,,Clear,70,2013-08-16 13:55:00
9:15 AM,66.2,56.3,70,30.17,10.0,East,4.6,-,N/A,,Clear,90,2013-08-16 14:15:00
9:35 AM,68.4,56.5,66,30.17,10.0,East,4.6,-,N/A,,Scattered Clouds,100,2013-08-16 14:35:00
9:55 AM,70.2,55.4,59,30.17,10.0,NE,3.5,-,N/A,,Clear,50,2013-08-16 14:55:00
10:15 AM,71.1,55.6,58,30.17,10.0,East,3.5,-,N/A,,Clear,80,2013-08-16 15:15:00
10:35 AM,72.0,55.0,55,30.17,10.0,ENE,6.9,-,N/A,,Clear,60,2013-08-16 15:35:00
10:55 AM,71.8,54.5,54,30.17,10.0,East,4.6,-,N/A,,Clear,80,2013-08-16 15:55:00
11:15 AM,72.5,54.1,52,30.17,10.0,ENE,3.5,-,N/A,,Scattered Clouds,60,2013-08-16 16:15:00
11:35 AM,72.1,54.3,53,30.17,10.0,NE,4.6,-,N/A,,Scattered Clouds,50,2013-08-16 16:35:00
11:55 AM,72.0,54.3,54,30.16,10.0,ENE,9.2,-,N/A,,Scattered Clouds,60,2013-08-16 16:55:00
12:15 PM,73.8,54.0,50,30.16,10.0,East,5.8,-,N/A,,Scattered Clouds,80,2013-08-16 17:15:00
12:35 PM,74.7,52.0,45,30.16,10.0,ENE,9.2,16.1,N/A,,Scattered Clouds,70,2013-08-16 17:35:00
12:55 PM,75.6,52.0,44,30.15,10.0,NE,8.1,16.1,N/A,,Scattered Clouds,50,2013-08-16 17:55:00
1:15 PM,75.4,51.8,44,30.15,10.0,NE,8.1,-,N/A,,Scattered Clouds,40,2013-08-16 18:15:00
1:35 PM,74.3,50.9,44,30.15,10.0,ENE,5.8,-,N/A,,Mostly Cloudy,70,2013-08-16 18:35:00
1:55 PM,75.6,50.4,41,30.15,10.0,ENE,4.6,-,N/A,,Scattered Clouds,70,2013-08-16 18:55:00
2:15 PM,75.4,50.7,42,30.15,10.0,ENE,6.9,-,N/A,,Scattered Clouds,60,2013-08-16 19:15:00
2:35 PM,76.6,51.6,42,30.14,10.0,East,9.2,-,N/A,,Scattered Clouds,80,2013-08-16 19:35:00
2:55 PM,77.5,50.9,39,30.14,10.0,ENE,5.8,-,N/A,,Scattered Clouds,70,2013-08-16 19:55:00
3:15 PM,77.4,51.1,40,30.13,10.0,NE,8.1,-,N/A,,Clear,50,2013-08-16 20:15:00
3:35 PM,77.5,50.0,38,30.13,10.0,East,5.8,-,N/A,,Clear,90,2013-08-16 20:35:00
3:55 PM,77.5,49.6,37,30.13,10.0,ENE,5.8,-,N/A,,Clear,70,2013-08-16 20:55:00
4:15 PM,77.4,50.9,39,30.13,10.0,East,6.9,-,N/A,,Clear,90,2013-08-16 21:15:00
4:35 PM,77.5,49.8,38,30.13,10.0,East,6.9,-,N/A,,Scattered Clouds,90,2013-08-16 21:35:00
4:55 PM,75.7,50.9,42,30.13,10.0,ENE,8.1,-,N/A,,Scattered Clouds,60,2013-08-16 21:55:00
5:15 PM,76.1,50.4,40,30.13,10.0,ENE,4.6,-,N/A,,Scattered Clouds,60,2013-08-16 22:15:00
5:35 PM,77.0,50.2,39,30.13,10.0,ENE,8.1,-,N/A,,Scattered Clouds,60,2013-08-16 22:35:00
5:55 PM,77.2,50.9,40,30.14,10.0,East,8.1,-,N/A,,Clear,80,2013-08-16 22:55:00
6:15 PM,76.8,49.8,39,30.14,10.0,East,5.8,-,N/A,,Clear,90,2013-08-16 23:15:00
6:35 PM,76.3,49.8,39,30.13,10.0,ENE,5.8,-,N/A,,Clear,70,2013-08-16 23:35:00
6:55 PM,75.2,50.7,42,30.13,10.0,East,5.8,-,N/A,,Clear,80,2013-08-16 23:55:00
7:15 PM,73.8,51.6,46,30.13,10.0,NE,3.5,-,N/A,,Clear,50,2013-08-17 00:15:00
7:35 PM,72.1,52.9,51,30.14,10.0,ENE,3.5,-,N/A,,Clear,60,2013-08-17 00:35:00
7:55 PM,70.7,54.0,55,30.14,10.0,Calm,Calm,-,N/A,,Clear,0,2013-08-17 00:55:00
8:15 PM,68.9,54.7,60,30.14,10.0,ENE,3.5,-,N/A,,Clear,70,2013-08-17 01:15:00
8:35 PM,67.8,53.8,61,30.14,10.0,East,4.6,-,N/A,,Clear,80,2013-08-17 01:35:00
8:55 PM,67.8,52.9,59,30.15,10.0,East,4.6,-,N/A,,Clear,90,2013-08-17 01:55:00
9:15 PM,67.5,52.7,59,30.15,10.0,East,4.6,-,N/A,,Clear,90,2013-08-17 02:15:00
9:35 PM,66.2,53.1,63,30.16,10.0,East,4.6,-,N/A,,Clear,90,2013-08-17 02:35:00
9:55 PM,65.5,53.6,65,30.16,10.0,East,4.6,-,N/A,,Clear,90,2013-08-17 02:55:00
10:15 PM,64.6,53.8,68,30.16,10.0,Calm,Calm,-,N/A,,Clear,0,2013-08-17 03:15:00
10:35 PM,62.1,54.9,77,30.16,10.0,Calm,Calm,-,N/A,,Clear,0,2013-08-17 03:35:00
10:55 PM,61.3,54.9,79,30.16,10.0,Calm,Calm,-,N/A,,Clear,0,2013-08-17 03:55:00
11:15 PM,60.8,55.4,82,30.17,10.0,Calm,Calm,-,N/A,,Clear,0,2013-08-17 04:15:00
11:35 PM,60.8,55.0,81,30.16,10.0,Calm,Calm,-,N/A,,Clear,0,2013-08-17 04:35:00
11:55 PM,60.1,56.7,88,30.17,10.0,Calm,Calm,-,N/A,,Clear,0,2013-08-17 04:55:00